Regional Weather Roundup
Issued by NWS

Home | Current Version | Previous Version | Graphics & Text | Print | Product List | Glossary On
Versions: 1 2 3 4 5 6 7 8 9 10 11 12 13 14 15 16 17 18 19 20 21 22 23 24 25 26 27 28 29 30 31 32 33 34 35 36 37 38 39 40 41 42 43 44 45 46 47 48 49 50
000
ASUS43 KOAX 210110
RWRNE

WEATHER ROUNDUP FOR NEBRASKA
NATIONAL WEATHER SERVICE OMAHA NE
700 PM CST FRI JAN 20 2017

NOTES: SATELLITE DATA IS BEING USED TO AUGMENT CLOUD COVER ABOVE
       12000 FEET.
       "FAIR" INDICATES FEW OR NO CLOUDS BELOW 12,000 FEET WITH NO
       SIGNIFICANT WEATHER AND/OR OBSTRUCTIONS TO VISIBILITY.

  * THESE STATIONS DO NOT REPORT WEATHER SUCH AS RAIN...SNOW OR FOG.

NEZ001>004-019>022-054>056-210200-
NEBRASKA PANHANDLE

CITY           SKY/WX    TMP DP  RH WIND       PRES   REMARKS
SCOTTSBLUFF    LGT RAIN  36  33  89 W7        29.41R WCI  30
ALLIANCE       CLOUDY    35  32  88 W8        29.38R WCI  29
CHADRON        CLOUDY    36  32  85 W12       29.38R WCI  28
KIMBALL        CLOUDY    35  31  87 NW8       29.42R WCI  28
SIDNEY         CLOUDY    35  32  88 NW13      29.41R WCI  26
$$

NEZ057>060-069>072-079>082-210200-
SOUTHWEST NEBRASKA

CITY           SKY/WX    TMP DP  RH WIND       PRES   REMARKS
NORTH PLATTE   CLOUDY    36  31  82 NW3       29.37R
IMPERIAL       CLOUDY    39  33  79 W5        29.39R
LEXINGTON      CLOUDY    38  35  92 S6        29.39R WCI  33
MCCOOK         CLOUDY    36  33  89 SW6       29.39R WCI  31
OGALLALA       CLOUDY    38  32  80 NW3       29.37S
$$

NEZ005>010-023>029-035>040-094-210200-
NORTH CENTRAL NEBRASKA

CITY           SKY/WX    TMP DP  RH WIND       PRES   REMARKS
VALENTINE      PTCLDY    36  28  73 W6        29.35R WCI  31
AINSWORTH      CLOUDY    35  31  86 W5        29.35R WCI  31
BROKEN BOW     CLOUDY    34  33  96 CALM      29.36R FOG
O`NEILL        CLOUDY    41  40  97 S8        29.37S FOG
ORD            FOG       38  37  97 CALM      29.37R VSB 1/4
THEDFORD       CLOUDY    35  32  88 CALM      29.37R
$$

NEZ041-046>049-061>064-073>077-083>087-210200-
SOUTH CENTRAL NEBRASKA

CITY           SKY/WX    TMP DP  RH WIND       PRES   REMARKS
GRAND ISLAND   FOG       39  39 100 S6        29.41R VSB 1   WCI  35
AURORA         FOG       38  38 100 CALM      29.41R VSB 1/4
HASTINGS       FOG       39  39 100 S3        29.41R VSB 1/2
HEBRON         FOG       42  42 100 CALM      29.42S VSB 1
HOLDREGE       CLOUDY    37  36  97 CALM      29.40R FOG
KEARNEY *      CLOUDY    37 -11  12 S6        29.40R VSB 1/2 WCI  33
YORK           FOG       39  39 100 CALM      29.41R VSB 1/2
$$

NEZ011>018-030>034-042>045-210200-
NORTHEAST NEBRASKA

CITY           SKY/WX    TMP DP  RH WIND       PRES   REMARKS
NORFOLK        FOG       38  38 100 SE8       29.39F VSB 1/2 WCI  32
ALBION         FOG      N/A N/A N/A E6        29.39S VSB 3/4
BLAIR          FOG       40  40  99 E8        29.44R VSB 1/2
FREMONT        CLOUDY    40  40 100 E6        29.44S FOG
TEKAMAH        CLOUDY    39  38  96 SE8       29.45F WCI  33
WAYNE          FOG       39  39  98 SE9       29.42F VSB 1/4 WCI  33
$$

NEZ050>053-065>068-078-088>093-210200-
SOUTHEAST NEBRASKA

CITY           SKY/WX    TMP DP  RH WIND       PRES   REMARKS
LINCOLN        CLOUDY    42  42 100 SE8       29.44R FOG
OMAHA EPPLEY   LGT RAIN  42  38  85 SE6       29.46S FOG
BEATRICE       FOG       44  44 100 SE8       29.43R VSB 1/2
FALLS CITY     FOG       44  44 100 SE5       29.45R VSB 1/2
NEBRASKA CITY  FOG       42  42 100 E7        29.44F VSB 1/4
PLATTSMOUTH    FOG       41  39  93 E8        29.44F VSB 1/2
$$

NEZ044-045-051>053-067-210200-
OMAHA AREA

CITY           SKY/WX    TMP DP  RH WIND       PRES   REMARKS
OMAHA EPPLEY   LGT RAIN  42  38  85 SE6       29.46S FOG
BLAIR          FOG       40  40  99 E8        29.44R VSB 1/2
FREMONT        CLOUDY    40  40 100 E6        29.44S FOG
MILLARD        RAIN      44  43  96 E5        29.45S
OFFUTT AFB     CLOUDY    41  41 100 E7        29.45S
PLATTSMOUTH    FOG       41  39  93 E8        29.44F VSB 1/2
WAHOO          FOG       40  39  97 E7        29.43S VSB 1/4 WCI  35
$$



USA.gov is the U.S. government's official web portal to all federal, state and local government web resources and services.